Voltar ao catálogo

THOR ABLESTAR DEB

AtivoPO
NORAD 1522·DEBRIS·🇺🇸 United States

Lançado Aug 13, 1965 de Vandenberg Space Force Base

Loading…

Próximas Passagens (próximas 24 horas)

TLE

AtualizadoSource: Space-Track

Época: Sep 14, 2026, 02:05 UTC

1 01522U 65065L   26257.08734792  .00000053  00000-0  89053-4 0  9991
2 01522  90.0588 127.0618 0070971 359.1214 166.0519 13.33864177971644

Acompanhe THOR ABLESTAR DEB em tempo real com AllMySat

Download on the App Store